KellyUSA Airport, TX

2:36 AM CDT on May 25, 2017 (GMT -0500)
Kelly Air Force Base

Weather History for KSKF - January, 2013

Change the Weather History Date:

Saturday, January 19, 2013

  Actual Average Record
Temperature  
Mean Temperature 52 °F -  
Max Temperature 68 °F 63 °F 84 °F (2000)
Min Temperature 36 °F 42 °F 30 °F (2003)
Degree Days  
Heating Degree Days 13    
Growing Degree Days 2 (Base 50)    
Moisture  
Dew Point 39 °F    
Average Humidity 69    
Maximum Humidity 94    
Minimum Humidity 37    
Precipitation  
Precipitation 0.00 in - - ()
Sea Level Pressure  
Sea Level Pressure 30.24 in    
Wind  
Wind Speed 2 mph (SW)    
Max Wind Speed 13 mph    
Max Gust Speed -    
Visibility 10 miles    
Events      
Averages and records for this station are not official NWS values.
T = Trace of Precipitation, MM = Missing Value Source: NWS Daily Summary

Daily Weather History Graph

Daily Weather History Graph

Search for Another Location

Airport or City:

Trip Planner

Search our weather history database for the weather conditions in past years. The results will help you decide how hot, cold, wet, or windy it might be!

Date:

Astronomy

Jan. 19, 2013 Rise Set
Actual Time 7:28 AM CST 6:01 PM CST
Civil Twilight 7:03 AM CST 6:27 PM CST
Nautical Twilight 6:34 AM CST 6:56 PM CST
Astronomical Twilight 6:05 AM CST 7:24 PM CST
Moon 12:23 PM CST (1/19) 1:11 AM CST (1/19)
Length of Visible Light 11h 23m
Length of Day
10h 32m
First Quarter, 57% of the Moon is Illuminated
Jan 19
First Quarter
Jan 26
Full
Feb 3
Last Quarter
Feb 10
New
Feb 17
First Quarter

Hourly Weather History & Observations

Time (CST) Temp. Windchill Dew Point Humidity Pressure Visibility Wind Dir Wind Speed Gust Speed Precip Events Conditions
12:55 AM 40.1 °F - 33.4 °F 77% 30.31 in 10.0 mi Calm Calm - N/A   Clear
1:55 AM 39.7 °F - 34.7 °F 82% 30.30 in 10.0 mi Calm Calm - N/A   Clear
2:55 AM 37.0 °F 33.3 °F 33.3 °F 86% 30.29 in 10.0 mi North 4.6 mph - N/A   Clear
3:55 AM 38.7 °F - 35.4 °F 88% 30.27 in 10.0 mi Calm Calm - N/A   Clear
4:55 AM 36.1 °F - 33.1 °F 89% 30.25 in 10.0 mi Calm Calm - N/A   Clear
5:55 AM 36.1 °F - 34.2 °F 93% 30.25 in 10.0 mi Calm Calm - N/A   Clear
6:55 AM 36.3 °F - 34.5 °F 93% 30.26 in 10.0 mi Calm Calm - N/A   Partly Cloudy
7:55 AM 37.0 °F 33.3 °F 35.4 °F 94% 30.27 in 10.0 mi NNW 4.6 mph - N/A   Scattered Clouds
8:55 AM 46.0 °F - 42.4 °F 87% 30.30 in 10.0 mi Calm Calm - N/A   Mostly Cloudy
9:55 AM 52.2 °F - 44.8 °F 76% 30.32 in 10.0 mi Calm Calm - N/A   Overcast
10:55 AM 59.2 °F - 46.4 °F 63% 30.31 in 10.0 mi South 9.2 mph - N/A   Mostly Cloudy
11:55 AM 63.7 °F - 44.4 °F 50% 30.27 in 10.0 mi SSW 9.2 mph - N/A   Clear
12:55 PM 65.8 °F - 43.7 °F 45% 30.23 in 10.0 mi South 12.7 mph - N/A   Partly Cloudy
1:55 PM 66.6 °F - 43.7 °F 44% 30.19 in 10.0 mi South 6.9 mph - N/A   Partly Cloudy
2:55 PM 67.6 °F - 40.8 °F 38% 30.17 in 10.0 mi WSW 5.8 mph - N/A   Clear
3:55 PM 68.0 °F - 40.6 °F 37% 30.16 in 10.0 mi Variable 4.6 mph - N/A   Clear
4:55 PM 66.7 °F - 40.3 °F 38% 30.15 in 10.0 mi SSE 5.8 mph - N/A   Clear
5:55 PM 62.1 °F - 40.1 °F 44% 30.15 in 10.0 mi Calm Calm - N/A   Clear
6:55 PM 54.5 °F - 39.0 °F 56% 30.17 in 10.0 mi Calm Calm - N/A   Clear
7:55 PM 52.0 °F - 38.7 °F 60% 30.19 in 10.0 mi Calm Calm - N/A   Clear
8:55 PM 47.1 °F - 38.3 °F 71% 30.21 in 10.0 mi Calm Calm - N/A   Clear
9:55 PM 45.9 °F 43.6 °F 39.0 °F 77% 30.22 in 10.0 mi NNW 4.6 mph - N/A   Clear
10:55 PM 45.0 °F - 38.8 °F 79% 30.23 in 10.0 mi Calm Calm - N/A   Clear
11:55 PM 43.7 °F - 38.5 °F 82% 30.23 in 10.0 mi Calm Calm - N/A   Clear